Regional Weather Roundup
Issued by NWS

Home | Current Version | Previous Version | Graphics & Text | Print | Product List | Glossary Off
Versions: 1 2 3 4 5 6 7 8 9 10 11 12 13 14 15 16 17 18 19 20 21 22 23 24 25 26 27 28 29 30 31 32 33 34 35 36 37 38 39 40 41 42 43 44 45 46 47 48 49 50

000
ASUS45 KBOU 271007
RWRCO

WEATHER ROUNDUP FOR COLORADO
NATIONAL WEATHER SERVICE DENVER/BOULDER CO
400 AM MDT WED AUG 27 2014

NOTE: "FAIR" INDICATES FEW OR NO CLOUDS BELOW 12000 FEET WITH NO
SIGNIFICANT WEATHER AND/OR OBSTRUCTIONS TO VISIBILITY.

COZ001>005-013-030-031-271100-
...NORTHWEST COLORADO...

CITY           SKY/WX    TMP DP  RH WIND       PRES   REMARKS
CRAIG          RAIN      55  52  89 SW8       30.28R FOG
HAYDEN         CLOUDY    54  48  82 NW8       30.29R
MEEKER         LGT RAIN  53  51  93 NE5       30.28F
MOUNT WERNER   NOT AVBL
STEAMBOAT SPGS CLOUDY    50  49  95 CALM      30.29R
WALDEN         CLOUDY    50  45  81 SW3       30.33S
$$

COZ006>008-011-271100-
...WEST CENTRAL VALLEYS...

CITY           SKY/WX    TMP DP  RH WIND       PRES   REMARKS
GRAND JUNCTION CLOUDY    57  55  93 E9        30.20F
MONTROSE       CLOUDY    55  54  96 W5        30.28S FOG
EAGLE          CLOUDY    54  54 100 E6        30.30F
RIFLE          CLOUDY    55  54  96 CALM      30.25S
DELTA          RAIN      58  56  95 CALM      30.24F
NUCLA          PTCLDY    54  52  94 CALM      30.31S
$$

COZ017>023-064>068-271100-
...SOUTHWEST COLORADO...

CITY           SKY/WX    TMP DP  RH WIND       PRES   REMARKS
DURANGO        FOG       51  51 100 W6        30.33R VSB 3/4
CORTEZ         CLOUDY    52  52 100 SW3       30.31S FOG
PAGOSA SPRINGS PTCLDY    54  53  97 CALM      30.36S
TELLURIDE      NOT AVBL
WOLF CREEK PAS CLOUDY    37  37 100 SW21      30.55F FOG
$$

COZ009-010-012-014-032>034-037-058>063-271100-
...CENTRAL COLORADO...

CITY           SKY/WX    TMP DP  RH WIND       PRES   REMARKS
ASPEN          LGT RAIN  51  49  92 CALM      30.34S
BUENA VISTA    RAIN      51  49  92 N5        30.35S
COPPER MTN     CLOUDY    45  37  76 S7        30.54S
BERTHOUD PASS  CLOUDY    36  36 100 E20G28    30.58F FOG
COTTONWOOD PAS LGT RAIN  50  45  81 S6        30.44F
GUNNISON       CLOUDY    52  46  82 CALM      30.36S
KREMMLING      LGT RAIN  52  46  82 CALM      30.32S
LEADVILLE      LGT RAIN  43  42  97 NE5       30.42F FOG
MONARCH PASS   FOG       39  37  93 W17G23    30.65F VSB 1/2
SALIDA         CLOUDY    55  54  95 N3        30.40S
SUNLIGHT       FOG       43  43 100 CALM      30.49F VSB 1/2
WILKERSON PASS NOT AVBL
$$

COZ069>075-271100-
...SAN LUIS VALLEY/SANGRE DE CRISTO MOUNTAINS...

CITY           SKY/WX    TMP DP  RH WIND       PRES   REMARKS
ALAMOSA        CLOUDY    53  51  93 CALM      30.33R
LA VETA PASS   NOT AVBL
SAGUACHE       CLOUDY    52  52 100 CALM      30.36S
$$

COZ035-036-038>040-271100-
...NORTHERN COLORADO FRONT RANGE...

CITY           SKY/WX    TMP DP  RH WIND       PRES   REMARKS
DENVER INTL AP CLOUDY    61  57  87 CALM      30.16F
DMNS CITY PARK   N/A     60  57  90 SE2       30.15F
AURORA         MOCLDY    59  57  91 SW2       30.18F
FRONT RANGE AP CLOUDY    61  59  94 W5        30.18S
ERIE MUNI ARPT CLOUDY    61  54  77 CALM      30.15F
BOULDER MUN AP CLOUDY    61  54  77 NW3       30.15F
CENTENNIAL     MOCLDY    58  54  86 CALM      30.18F
BROOMFIELD     CLOUDY    61  52  72 NW7       30.17F
FORT COLLINS   MOCLDY    59  55  88 N3        30.17F
LONGMONT       MOCLDY    63  56  80 N6        30.17F
$$

COZ041-046-047-076>085-087-088-271100-
...PIKES PEAK/PALMER DIVIDE AND SOUTHERN FOOTHILLS...

CITY           SKY/WX    TMP DP  RH WIND       PRES   REMARKS
COLO. SPRINGS  PTCLDY    57  54  89 CALM      30.22F
A. F. ACADEMY  PTCLDY    52  52  99 N3        30.23F
ELLICOTT       PTCLDY    52  52 100 CALM      30.21F
FALCON         PTCLDY    52  51  97 CALM      30.26S
FORT CARSON    CLEAR     57  53  86 W6        30.20F
LIMON          CLOUDY    58  56  93 CALM      30.18F
MONUMENT HILL  PTCLDY    50  48  93 SW5       30.24F
TRINIDAD       MOCLDY    63  55  75 W14       30.20F
$$

COZ042>045-048>051-090-091-271100-
...NORTHEAST COLORADO...

CITY           SKY/WX    TMP DP  RH WIND       PRES   REMARKS
GREELEY ARPT   CLOUDY    59  52  77 CALM      30.14F
AKRON          MOCLDY    63  59  87 CALM      30.15F
BURLINGTON     PTCLDY    60  59  96 S6        30.14F
WRAY             N/A     63  63 100 CALM      30.13F
STERLING       PTCLDY    64  63  94 S6        30.12R
HOLYOKE        CLOUDY    64  63  94 SE7       30.13S
FORT MORGAN    PTCLDY    60  56  86 CALM      30.15S
$$

COZ086-089-092>099-271100-
...SOUTHEAST COLORADO...

CITY           SKY/WX    TMP DP  RH WIND       PRES   REMARKS
PUEBLO         PTCLDY    59  56  89 NE3       30.14F
LA JUNTA       CLOUDY    64  63  96 SE6       30.12F
LAMAR          PTCLDY    65  62  90 S8        30.09F
SPRINGFIELD      N/A     63  62  97 S7        30.15S
$$



USA.gov is the U.S. government's official web portal to all federal, state and local government web resources and services.